TIANMU-1 08

Last updated on Thu Oct 30 2025 00:02:23 GMT+0000 (Coordinated Universal Time)

1 57400U 23101B 25302.47752334 .00009766 00000+0 36954-3 0 9997 2 57400 97.2930 353.1228 0004774 226.7982 133.2859 15.27131220126396
UTC large
Height (km)
Speed (km/s)
/
Latitude / Longitude
Inclination (degrees)
Orbital Period (minutes)
Azimuth
Elevation
Range (km)
Doppler Factor

Next 0 passes for location: London (51.5072 / 0.1276)

Sorry there are no passes over London.